Regional Weather Roundup
Issued by NWS Midland/Odessa, TX

Skip options and go directly to product.
Home | Oldest Version | Next Version | Current Version | All | Text Only | Save Text | Print | Product List | Glossary On

Skip product version selection by date and time.   
131
ASUS44 KMAF 240710
RWRMAF
MIDLAND AREA WEATHER ROUNDUP
NATIONAL WEATHER SERVICE MIDLAND TX
200 AM CDT SUN JUL 24 2016

...IN SOUTHWEST TEXAS AND SOUTHEAST NEW MEXICO...

CITY           SKY/WX    TMP DP  RH WIND       PRES   REMARKS
ALPINE         CLEAR     79  55  42 S7        30.12S
ANDREWS        FAIR      80  56  43 S7        30.01S
ARTESIA        CLEAR     79  48  34 S7        29.99S
BIG SPRING     CLEAR     83  58  42 SE9       30.00R
CARLSBAD       CLEAR     83  55  38 SE9       29.97S
DRYDEN           N/A     86  59  39 E12       29.93S
FORT STOCKTON  CLEAR     83  57  41 SE13      29.97S
GUAD PASS      CLEAR     77  52  41 NE32      30.12S
HOBBS          CLEAR     81  54  39 SE9       30.04R
MARFA          CLEAR     71  53  52 NW6       30.12S
MIDLAND AIRPK  CLEAR     85  55  36 S9        29.99S
MIDLAND INTL   CLEAR     83  56  39 S8        29.99R
ODESSA         CLEAR     85  56  37 S10       30.00S
PECOS          CLEAR     85  57  37 E14       29.93S
PRESIDIO       FAIR      89  56  32 NE13      29.92S
SEMINOLE       CLEAR     77  55  46 CALM      30.02S
SNYDER           N/A     85  58  39 SE12      29.98S
WINK           CLEAR     83  55  38 SE10      29.95S
$$
...OTHER STATIONS IN TEXAS...

CITY           SKY/WX    TMP DP  RH WIND       PRES   REMARKS
ABILENE        CLEAR     81  63  54 S12       29.97R
AMARILLO       CLEAR     79  54  41 S13       30.03R
AUSTIN         PTCLDY    81  75  82 S5        29.96S
BROWNSVILLE    CLEAR     81  77  88 S7        29.93S
CORPUS CHRISTI PTCLDY    82  78  88 S9        29.92F
DALLAS FTW     PTCLDY    86  71  60 S8        29.90F
DEL RIO        CLEAR     88  68  51 E14G21    29.89R
EL PASO        CLEAR     88  43  20 SE3       29.96R
HOUSTON INT    PTCLDY    83  75  77 S5        29.94F
LUBBOCK        CLEAR     80  59  48 S10       30.01S
SAN ANGELO     CLEAR     83  60  45 S6        29.95S
SAN ANTONIO    MOCLDY    81  74  79 SE13G20   29.97F
WACO           CLEAR     85  70  60 S15       29.91F
WICHITA FALLS  NOT AVBL
$$
...OTHER LOCATIONS IN NEW MEXICO...

CITY           SKY/WX    TMP DP  RH WIND       PRES   REMARKS
ALAMAGORDO     CLEAR     82  39  21 NW6       30.00S
ALBUQUERQUE    CLOUDY    81  49  32 W12       30.15S
CANNON AFB     CLEAR     72  55  54 SE7       30.07R
CLOVIS         CLEAR     72  52  49 S8        30.07S
HOLLOMAN AFB   NOT AVBL
ROSWELL        CLEAR     78  44  29 S6        29.99S
RUIDOSO          N/A     70  39  32 SW6       30.27F
SANTA FE       CLOUDY    69  56  62 CALM      30.23S
TRUTH OR CONSE CLEAR     80  45  28 N6        30.07R
TUCUMCARI      CLEAR     82  48  30 SW14      30.04R
$$

USA.gov is the U.S. government's official web portal to all federal, state and local government web resources and services.